Theta_e
310 315 318 319 321 322 322 317 317 321 317 311 313 313 312 311 309 309 309 306 302 306 310 307 306 307 306 307 306 305 302 299 296 296 297 297 297 297 298 298 299 299 299 299 297 295 294 294 293 293 293 293 293 293 292 291 291 291 292 292 292 292 292 292 292 291 291 291 292 292 292 292 291 291 291 291 292 292 292 292 292 292 292 292 292 291
311 316 320 325 321 317 318 313 311 312 309 308 310 310 310 310 310 308 306 306 304 305 310 310 308 307 306 307 307 306 304 301 298 297 297 298 298 298 298 298 298 298 298 298 297 295 294 293 293 293 293 293 293 293 292 291 291 291 292 292 292 291 292 292 292 291 291 291 291 291 291 291 291 291 291 291 291 292 292 292 292 292 292 292 291 291
317 319 322 320 310 307 310 307 308 310 308 310 310 309 311 310 311 311 307 307 306 305 310 311 308 307 307 306 306 306 306 304 302 302 302 301 299 299 299 298 298 297 297 297 297 295 294 293 293 293 293 293 293 292 292 291 291 291 291 291 291 291 291 291 291 291 291 290 290 290 290 290 290 290 290 291 291 291 291 291 291 291 291 291 291 290
321 324 316 306 302 308 311 306 308 310 309 311 310 310 313 310 312 316 311 308 308 306 307 308 306 306 307 306 307 306 304 305 305 304 305 303 302 302 301 300 299 298 297 297 297 296 294 293 293 292 292 293 293 292 292 291 291 291 291 291 291 291 291 291 291 291 290 290 290 290 289 289 290 290 290 290 290 290 291 291 291 290 290 290 290 290
322 317 304 301 305 311 312 308 308 309 311 315 313 310 312 312 311 313 311 308 310 308 305 307 310 312 311 309 309 305 301 303 304 303 303 302 302 302 301 301 300 299 299 298 298 296 294 294 293 293 293 293 293 293 292 291 291 291 291 291 291 291 291 290 290 290 290 290 290 289 289 289 290 290 290 290 290 290 290 291 290 290 290 289 289 289
319 308 301 307 309 309 312 312 312 312 314 319 318 312 311 312 309 309 311 309 314 315 307 308 314 316 314 312 312 309 306 306 304 302 303 301 301 301 301 301 300 299 299 298 298 297 296 294 293 293 293 293 293 293 292 292 291 291 291 291 291 290 290 290 290 290 290 290 290 289 289 290 290 290 290 290 290 290 290 290 290 290 289 289 289 289
314 305 305 313 312 309 310 312 314 312 312 317 315 311 309 308 308 309 310 310 316 317 307 308 316 315 313 314 315 313 311 311 307 305 303 301 301 301 301 302 300 299 299 298 297 297 296 295 293 293 293 293 293 293 292 291 291 291 291 291 291 290 290 290 290 290 290 290 289 289 289 290 289 290 290 290 289 289 289 289 289 289 289 288 288 288
310 307 309 312 312 312 311 314 316 311 315 318 312 310 311 309 309 310 308 308 311 311 306 307 311 312 311 312 312 311 311 311 309 309 305 301 301 302 303 303 301 300 300 298 297 297 296 295 294 294 293 293 293 293 292 291 291 291 291 291 290 290 290 290 290 290 290 290 290 289 289 289 289 289 289 289 289 289 288 289 289 289 288 288 288 288
308 312 314 313 314 314 314 319 315 310 316 316 307 307 309 307 309 309 307 307 308 308 309 307 306 310 313 310 307 306 308 312 312 315 314 306 303 303 304 304 302 301 299 298 298 298 297 296 294 294 294 294 293 293 292 291 291 291 291 291 290 290 290 290 290 290 290 290 289 289 289 289 289 289 289 289 288 288 288 288 288 288 288 288 288 288
309 310 310 313 317 315 315 312 307 310 313 307 303 307 309 309 309 308 308 309 310 312 314 311 307 311 316 313 307 305 308 313 315 316 314 307 303 304 304 304 303 301 299 298 298 298 298 296 295 294 293 293 293 293 292 291 291 291 291 291 290 290 290 290 290 290 290 289 289 289 289 289 289 289 289 288 288 288 288 288 288 288 288 288 288 288
306 303 304 309 311 310 310 305 301 306 306 301 306 312 314 313 309 308 310 311 313 316 316 312 307 310 316 313 309 309 311 316 318 315 312 308 305 305 304 303 302 301 300 299 298 297 297 296 294 293 293 293 293 292 291 291 290 290 290 290 290 290 290 290 290 290 290 289 289 289 289 289 289 289 288 288 288 288 288 288 288 288 288 288 287 287
308 306 307 307 305 304 309 308 302 301 300 304 313 316 316 317 315 315 315 314 316 318 316 310 305 307 314 312 310 313 312 312 316 317 316 313 307 305 304 303 302 302 301 299 297 296 296 295 293 293 293 293 292 292 291 291 290 290 290 290 290 290 290 290 290 290 290 290 289 289 289 289 289 288 288 288 288 288 288 287 287 287 287 287 287 287
315 313 309 305 303 304 313 315 307 304 305 308 313 316 317 319 321 322 319 316 318 317 310 305 306 307 310 310 310 312 311 310 310 310 311 310 305 303 303 302 302 302 300 299 297 297 296 294 293 293 293 292 292 292 291 290 290 290 290 290 291 290 290 290 290 290 290 289 290 289 289 289 288 288 288 288 288 287 287 287 287 287 287 287 287 287
319 314 307 308 307 305 311 315 312 312 309 307 312 316 318 320 323 324 319 315 316 316 307 302 307 310 310 311 311 309 310 309 306 304 305 304 301 301 300 300 301 301 300 298 297 297 296 295 294 293 293 293 292 292 291 290 290 291 291 290 291 290 290 290 290 290 290 289 289 289 289 288 288 288 287 287 287 287 287 287 287 287 287 287 287 287
320 317 313 313 311 308 308 310 314 317 309 306 312 315 317 323 325 323 322 318 316 318 310 303 308 315 313 313 311 308 306 304 303 304 304 301 299 298 298 299 299 299 299 298 297 297 296 295 294 293 293 293 292 291 290 291 291 291 291 290 290 290 290 290 290 290 290 289 289 289 288 288 287 287 287 288 287 287 287 287 287 286 286 286 286 287
315 318 315 307 305 306 307 305 307 314 311 307 310 312 315 320 320 317 318 317 314 314 311 307 311 315 311 309 308 307 305 301 298 299 299 297 297 297 298 299 299 299 298 297 297 297 296 295 294 293 293 292 292 291 291 291 291 291 291 290 290 290 290 290 290 290 290 289 289 288 288 287 287 287 288 288 287 287 287 286 286 286 286 286 286 286
315 318 311 302 303 303 302 302 303 309 313 309 308 312 313 311 315 318 316 311 309 312 313 311 312 311 309 310 306 304 306 303 300 298 296 294 295 296 298 299 299 298 298 297 297 297 296 295 293 293 293 292 292 291 291 291 291 291 290 290 290 290 290 290 290 290 289 289 288 288 287 287 287 288 288 287 287 287 287 286 286 286 286 286 286 286
317 317 310 306 310 303 295 299 300 300 306 311 312 312 308 306 311 316 316 314 312 313 314 313 311 309 310 310 306 304 308 308 306 304 298 293 292 294 297 299 299 299 298 297 297 296 296 295 293 293 292 292 291 291 291 291 291 291 290 290 290 290 290 290 289 289 289 288 288 287 287 288 288 288 287 287 287 286 286 286 286 285 285 285 285 285
315 314 313 305 307 303 296 301 305 300 299 307 309 306 306 312 313 311 312 315 314 313 315 315 311 309 310 311 310 309 311 311 310 307 301 297 294 292 296 298 298 298 297 297 297 296 295 294 293 292 292 291 291 291 291 291 291 290 290 290 290 290 290 289 289 289 288 288 287 287 288 288 287 287 287 287 286 286 286 286 285 285 285 285 284 284
312 314 316 304 300 303 302 305 312 306 299 300 302 301 305 312 313 312 311 313 315 313 313 314 311 310 313 316 316 314 312 313 314 310 305 301 295 294 298 300 299 299 298 298 298 297 296 294 293 292 291 291 291 291 291 291 290 290 290 290 290 290 289 289 288 288 288 287 288 288 288 288 287 287 287 287 286 286 286 286 285 285 284 284 284 283
312 314 315 307 300 303 307 307 310 309 304 302 304 305 304 305 309 311 309 309 313 313 313 314 312 311 313 316 318 315 313 315 315 314 310 302 296 298 303 303 302 301 300 300 299 298 296 294 292 291 291 291 291 291 291 290 290 290 290 290 290 289 289 288 288 288 288 288 288 288 288 287 287 287 287 287 286 286 286 286 285 285 284 283 283 283
314 314 315 312 307 306 308 307 304 307 307 306 307 308 306 305 308 312 309 308 309 311 314 315 313 311 311 314 316 315 316 317 314 314 311 301 297 302 306 305 304 303 302 301 299 298 297 294 292 291 291 291 291 291 290 290 290 290 290 289 289 289 288 288 288 288 288 288 288 288 288 287 287 287 287 287 286 286 286 285 285 284 283 283 282 282
313 315 314 313 312 308 305 301 298 301 304 305 307 308 307 306 308 311 311 309 309 309 310 311 312 312 311 314 317 316 315 313 306 305 304 298 299 305 306 304 304 302 301 300 298 298 296 293 292 291 291 291 291 290 290 290 290 289 289 289 289 288 288 288 288 288 288 288 288 287 287 287 287 287 287 286 286 286 285 285 284 283 282 282 281 281
310 315 313 312 315 311 304 300 298 299 301 305 307 306 306 306 308 310 310 310 311 310 308 309 310 311 311 313 314 310 305 300 295 296 298 296 298 303 303 302 303 301 300 298 297 297 295 292 291 290 291 291 290 290 290 289 290 289 289 289 288 288 288 287 288 288 288 288 287 287 287 287 287 287 287 286 286 285 284 284 283 282 281 281 280 280
310 315 313 312 315 315 310 306 304 302 301 304 307 305 305 306 306 308 307 307 310 309 308 309 310 310 310 308 306 304 302 300 296 295 295 295 297 300 301 300 300 299 298 297 296 295 293 291 291 291 291 291 290 290 289 289 289 289 289 288 288 288 287 287 288 288 288 287 287 287 287 287 287 287 286 286 285 285 284 283 282 280 280 280 280 280
312 315 313 311 312 312 310 310 311 308 303 303 306 305 304 305 305 307 307 307 308 308 307 309 310 310 310 308 306 305 304 304 301 296 294 295 297 298 298 298 299 298 297 297 296 294 292 291 291 291 290 290 290 290 289 289 289 289 288 288 287 288 287 288 288 287 287 287 287 287 287 287 287 286 286 285 284 284 283 281 280 279 279 279 280 280
316 316 312 311 312 310 309 309 311 311 307 305 307 306 304 304 304 306 308 308 308 307 307 308 308 309 310 309 309 308 306 306 306 302 298 296 297 298 298 298 298 297 296 296 295 293 292 291 291 290 290 290 290 289 289 289 289 288 288 287 287 288 287 288 288 287 287 287 287 287 287 287 286 286 285 284 283 283 281 280 279 279 279 280 280 281
317 314 310 311 311 310 310 310 310 312 310 308 308 307 305 304 304 305 307 308 308 308 308 308 308 309 309 308 308 309 308 308 308 308 304 300 300 300 299 298 296 294 294 294 293 292 292 291 290 290 290 290 289 289 289 289 289 288 287 287 287 287 288 288 287 287 287 287 287 287 286 286 286 285 284 283 282 282 280 279 279 279 280 280 281 281
313 312 310 311 310 309 310 309 310 311 309 308 308 307 306 304 304 305 305 306 307 308 308 308 308 309 309 308 308 309 309 309 309 308 306 304 303 301 298 297 294 293 294 294 293 293 292 291 290 290 290 290 289 290 289 289 288 288 287 287 287 287 287 287 287 287 287 287 287 286 286 286 285 285 283 282 282 281 280 279 279 280 281 281 281 281
309 310 310 310 310 310 309 308 309 308 307 308 308 307 306 304 303 304 305 305 306 306 307 307 308 309 308 308 309 308 308 308 307 307 305 303 302 300 298 296 294 294 295 295 295 294 292 290 290 289 290 290 290 290 289 288 288 287 287 287 287 287 287 287 287 287 287 287 286 286 286 286 285 284 282 282 281 280 279 279 280 280 281 281 280 280
306 310 313 311 310 311 310 309 309 308 307 308 308 307 307 305 304 303 304 304 305 305 305 306 307 308 307 308 308 307 306 306 306 305 304 303 302 300 297 296 295 295 296 296 295 294 291 290 289 289 290 290 290 289 289 288 288 287 287 287 287 287 287 287 287 287 287 286 286 286 285 285 284 282 282 281 280 279 279 280 280 281 281 281 280 280
307 310 313 312 311 311 310 311 311 309 308 308 309 309 308 307 306 305 305 304 305 305 305 306 306 306 306 307 307 306 306 306 306 305 304 304 304 301 298 297 297 297 297 297 295 293 291 290 289 290 290 290 289 289 289 288 287 287 287 287 287 287 287 287 287 286 286 286 286 286 285 283 282 282 281 280 279 279 279 280 280 281 281 280 280 279
307 309 310 310 311 310 311 312 311 310 309 310 310 310 309 308 308 307 307 306 305 305 306 306 307 307 307 307 307 307 307 307 307 305 304 304 303 301 300 299 299 300 299 298 296 294 293 291 290 290 290 289 289 289 288 288 287 287 287 287 287 287 287 286 286 286 286 286 286 285 283 282 282 282 281 279 279 279 280 280 280 280 280 280 279 279
307 308 309 310 311 310 309 309 310 310 310 312 312 312 311 310 309 309 309 308 308 307 306 306 307 307 307 307 308 308 308 307 307 306 305 304 303 302 301 300 301 301 300 298 296 295 293 292 290 289 289 289 289 289 288 287 287 287 287 287 287 287 286 286 286 286 286 286 285 284 283 282 282 281 280 279 279 279 280 280 280 280 279 279 279 278
307 307 308 310 311 309 306 308 310 311 311 311 313 314 313 312 311 310 309 309 309 308 307 307 307 307 307 307 307 307 307 307 307 305 304 304 303 302 301 301 301 301 299 298 296 294 293 291 289 289 289 289 289 288 288 287 287 287 287 287 287 286 286 286 286 286 286 285 284 283 283 282 282 280 279 278 279 279 280 280 280 279 279 278 278 277
308 306 307 310 310 307 305 308 311 311 310 310 311 311 309 309 310 310 310 309 308 308 308 308 307 307 307 307 306 306 306 305 304 304 304 304 303 302 302 302 302 301 300 299 298 296 294 292 290 290 289 289 289 288 287 287 287 287 287 286 286 286 286 286 286 286 285 284 283 283 282 282 280 279 278 279 279 279 279 279 279 279 278 278 277 275
307 308 307 308 310 309 308 309 310 310 310 310 309 309 308 308 309 309 310 310 309 308 308 308 307 308 307 306 306 305 303 302 302 303 304 304 303 302 301 302 302 301 300 299 297 296 294 291 290 289 289 289 289 288 287 287 287 287 286 286 286 286 286 286 286 286 285 284 283 283 282 280 279 278 278 279 279 279 279 279 279 278 278 277 276 275
306 308 308 309 310 310 310 310 310 311 311 310 309 310 309 308 308 308 309 310 309 309 309 308 308 307 307 307 305 301 300 302 304 304 304 304 303 301 301 300 300 299 298 297 295 293 291 290 289 289 289 289 288 287 287 287 287 286 286 286 286 286 286 286 286 285 284 284 283 282 281 279 278 278 278 278 278 278 278 278 278 277 277 276 276 275
305 306 307 309 309 310 311 311 310 311 311 309 310 311 308 305 305 307 309 309 310 310 309 308 308 307 307 307 302 300 301 304 305 304 304 304 303 301 300 299 298 296 295 295 295 293 291 289 289 289 289 288 288 287 287 286 286 286 286 286 286 286 286 286 286 285 284 283 282 281 279 278 277 277 278 278 277 277 277 278 278 277 276 276 275 274
304 304 305 307 308 309 310 310 311 311 310 310 311 308 303 302 305 309 310 310 311 311 308 307 308 308 306 303 300 301 304 304 304 304 303 303 302 300 299 298 297 296 294 292 292 292 291 289 289 289 289 288 287 287 286 286 286 286 286 286 286 286 286 286 285 285 283 282 281 280 278 277 277 277 277 277 277 276 277 277 277 277 276 276 274 273
304 304 305 306 307 309 309 311 311 311 311 311 308 302 300 302 307 311 311 311 311 310 305 304 306 306 304 300 298 300 303 303 303 302 301 301 301 300 298 297 295 294 293 292 291 291 290 290 289 289 289 288 287 287 286 286 286 286 286 286 286 286 286 286 285 284 282 281 280 278 277 276 277 277 277 277 276 276 276 276 277 276 276 276 274 273
305 305 305 306 307 308 309 311 310 310 312 310 303 298 301 306 309 310 310 309 309 308 304 303 303 303 302 299 298 301 304 303 302 300 299 300 299 299 298 296 293 292 291 291 291 290 290 289 289 288 288 287 287 286 286 286 286 286 286 286 286 286 286 285 284 283 282 281 279 277 276 276 276 277 277 277 276 276 276 276 277 276 275 275 274 273
308 307 307 307 308 308 309 310 310 312 313 307 301 300 303 307 310 310 308 308 308 306 304 303 303 304 303 300 299 302 303 301 300 299 298 298 297 297 297 296 294 292 291 290 290 289 289 289 289 288 287 287 286 286 286 286 286 286 286 286 286 286 285 284 283 282 281 280 278 277 276 276 276 277 277 277 276 276 275 276 276 276 275 274 274 272
310 310 309 308 309 310 310 309 310 313 311 305 304 306 305 305 309 310 309 309 308 307 304 303 303 305 305 303 303 303 301 299 299 298 297 296 295 295 295 294 293 292 291 290 290 289 289 289 289 288 287 286 286 286 285 286 286 286 286 286 286 286 285 283 282 281 280 279 277 276 275 276 276 276 277 277 276 276 275 275 275 275 275 274 273 272
312 312 311 311 310 310 311 310 310 311 307 303 305 309 307 305 307 308 308 307 307 307 305 303 304 305 305 305 304 302 301 301 300 297 296 296 295 295 294 293 292 291 291 290 289 289 289 289 288 287 286 286 285 285 285 286 286 286 286 286 286 285 284 283 281 280 279 278 276 275 275 275 276 276 276 276 276 276 275 275 275 275 274 274 272 270
312 312 311 312 311 310 310 310 309 309 305 301 304 308 308 307 307 306 305 306 306 307 306 305 306 306 306 305 303 302 303 303 300 297 296 295 294 294 293 292 291 290 290 290 289 289 288 288 287 287 286 285 285 285 285 286 286 286 286 285 285 284 283 282 281 279 278 277 275 275 275 275 275 276 276 276 276 275 275 274 274 274 274 273 272 270
312 311 311 311 311 311 311 310 310 309 306 302 303 305 306 307 307 306 305 305 305 306 306 306 306 306 306 306 304 304 305 304 299 296 295 294 293 293 292 291 290 290 290 290 289 289 288 287 287 286 285 285 285 285 285 286 285 286 286 285 285 283 282 281 280 279 278 276 275 274 274 274 275 275 276 276 276 275 275 273 273 274 273 273 273 270
311 310 310 310 310 311 311 311 310 310 307 305 304 305 305 305 305 305 305 305 305 305 305 305 305 305 305 306 305 305 305 302 299 297 295 293 293 292 292 291 291 290 289 289 289 288 288 287 287 286 285 285 285 285 285 285 285 285 285 285 284 283 281 280 279 278 277 275 274 274 274 274 274 275 275 275 275 275 275 273 273 273 273 273 272 270
311 311 311 310 310 310 311 311 310 310 309 308 307 306 306 306 305 305 304 303 303 303 303 303 304 304 305 305 305 304 303 301 300 298 296 294 293 292 292 291 291 290 289 289 288 288 288 287 287 286 285 285 285 285 285 285 285 285 285 284 283 282 281 279 278 277 276 275 274 273 273 274 274 274 274 274 274 274 274 273 272 272 272 273 272 270
312 311 311 311 311 311 311 310 310 311 311 309 308 308 308 308 306 305 304 303 302 302 302 302 302 303 303 304 304 303 302 301 300 298 296 294 294 293 292 291 290 290 289 288 288 287 287 286 286 285 285 285 285 285 285 285 285 285 285 284 282 281 280 279 277 276 275 274 273 273 273 273 273 273 273 273 273 273 274 273 272 272 272 272 272 272
312 312 312 312 311 311 311 310 310 311 311 310 310 310 309 308 307 306 305 304 304 303 303 302 302 301 301 301 301 302 302 302 301 297 294 294 294 294 293 291 291 290 289 288 287 286 285 285 285 284 284 284 285 285 285 285 285 285 284 283 281 280 279 278 277 276 274 273 273 272 272 273 273 273 272 272 272 272 273 273 273 273 273 272 272 272
Wind_Speed
2 1 3 5 7 7 8 7 6 5 6 4 4 4 5 6 7 6 4 4 1 1 9 9 9 13 17 18 17 15 17 22 22 20 25 28 30 34 37 41 44 45 45 40 36 34 33 32 30 27 25 22 19 16 14 13 12 10 9 8 8 9 11 12 13 14 15 16 17 18 18 18 18 19 19 19 21 22 23 25 27 28 29 30 30 31
3 3 7 9 9 7 5 6 7 5 5 3 4 4 5 5 8 8 3 4 2 2 6 7 7 12 16 17 19 15 11 15 19 20 26 29 31 35 37 41 43 42 42 40 38 38 36 35 32 30 27 23 20 17 16 15 13 11 9 8 8 9 11 12 13 14 16 17 18 19 19 20 20 20 20 20 21 22 23 24 26 28 29 30 31 31
2 6 10 8 6 5 5 5 7 5 5 3 2 2 4 4 5 7 4 4 2 2 5 8 8 14 17 17 20 19 13 17 22 24 30 31 31 35 37 39 39 38 40 41 42 41 40 37 34 31 28 24 22 19 17 16 14 12 10 9 9 10 11 12 13 14 16 17 18 19 20 21 21 21 22 22 23 24 24 25 27 29 30 31 31 31
2 7 8 5 8 8 5 4 7 5 2 3 3 2 5 3 2 5 4 5 3 2 4 8 11 13 14 14 17 18 14 18 24 27 32 31 31 35 36 36 37 39 42 43 44 44 42 39 36 33 30 26 24 22 19 17 15 13 11 10 9 10 11 12 13 14 16 17 18 19 20 21 21 22 23 24 24 26 27 28 29 30 31 33 33 33
7 6 3 6 6 6 5 3 5 4 2 3 5 6 6 5 5 6 3 5 4 3 2 6 11 10 7 8 10 7 4 10 17 22 28 30 31 33 32 33 36 39 41 43 45 46 44 42 39 35 31 28 26 24 21 18 15 14 12 11 10 10 11 12 13 14 16 17 18 19 20 21 22 23 24 26 26 27 29 31 31 32 33 34 35 35
9 4 6 5 2 4 6 3 5 7 2 4 5 9 9 8 7 5 5 6 4 4 4 5 7 8 1 3 8 4 3 6 8 12 21 26 26 28 32 34 36 37 39 41 43 46 46 44 41 36 33 31 29 25 21 18 16 14 12 12 11 11 11 12 14 15 16 18 19 20 21 23 24 25 25 26 28 29 30 31 32 33 34 35 36 35
3 1 4 5 4 4 4 4 5 7 4 3 4 6 6 4 1 2 4 4 2 3 4 4 1 9 4 3 8 6 4 9 9 9 17 23 23 26 33 35 35 36 38 39 41 44 46 46 43 39 36 33 30 26 22 19 17 14 14 13 12 12 12 13 14 15 17 18 19 21 23 24 26 27 27 27 28 30 31 32 33 34 34 35 35 35
2 3 4 5 5 4 4 5 6 8 7 3 4 4 5 5 3 2 3 1 4 2 4 1 4 8 9 6 6 4 5 11 13 12 14 19 24 28 32 33 34 37 38 38 40 43 46 47 45 42 38 34 30 27 24 20 17 16 15 14 13 12 13 14 15 16 17 19 20 21 23 24 25 27 28 29 30 31 33 34 35 36 36 36 36 36
3 4 4 5 4 3 6 5 7 10 5 5 5 5 6 5 4 4 4 2 2 3 5 5 5 4 10 6 2 2 4 9 12 14 12 14 21 26 27 29 31 33 35 37 39 41 45 47 46 42 37 33 30 28 24 21 18 17 16 15 14 14 14 15 16 16 17 19 21 22 24 25 25 27 29 30 31 32 34 36 36 37 38 38 38 37
2 4 5 7 5 5 5 2 5 8 3 4 6 5 5 5 4 4 3 1 2 3 7 7 7 4 8 4 3 3 3 8 10 11 10 13 20 21 20 23 25 28 31 34 37 39 42 45 45 40 36 33 31 28 24 21 19 18 16 15 15 15 15 15 16 16 17 19 21 22 24 26 27 28 30 31 32 33 35 37 38 39 39 40 40 40
1 2 2 4 4 5 5 3 2 4 4 5 6 4 5 4 4 4 1 3 2 6 9 7 12 7 6 3 5 4 5 7 7 7 7 11 18 18 17 19 20 24 28 31 34 36 38 41 41 39 37 35 31 28 24 22 20 18 17 16 16 15 15 16 16 17 17 19 21 23 25 26 28 29 30 32 33 35 36 38 39 40 41 41 42 42
3 1 2 3 4 6 7 5 4 4 4 5 4 4 4 4 3 4 4 4 0 7 6 4 8 8 7 6 4 5 7 6 7 6 7 9 15 16 14 15 16 20 25 28 32 34 37 39 40 40 39 35 31 28 25 22 20 19 18 17 16 16 16 16 17 17 17 19 21 23 25 26 28 29 30 33 35 36 37 39 40 41 42 43 43 43
3 4 2 1 4 6 6 4 3 4 3 4 4 4 3 4 4 4 3 1 3 7 3 2 4 5 11 11 8 10 10 8 9 9 11 12 15 16 14 14 15 18 23 27 30 33 37 41 43 43 40 35 31 28 25 22 21 19 18 17 16 16 17 17 17 17 17 19 21 23 25 26 27 28 30 32 35 36 38 40 41 42 43 44 45 45
4 5 1 2 3 7 9 4 2 2 2 5 5 4 3 1 1 3 4 2 6 6 2 3 3 4 9 8 11 16 15 14 15 16 19 20 19 18 16 15 16 19 23 27 29 33 38 42 44 43 39 35 31 28 24 22 21 20 19 18 17 16 17 17 17 17 18 19 21 23 24 25 27 28 30 32 34 36 38 40 41 42 44 45 46 46
3 7 4 5 2 7 10 5 4 5 4 4 4 5 5 5 4 5 4 4 7 6 3 3 2 4 5 4 7 10 12 15 16 19 22 22 20 17 17 17 19 21 24 26 29 33 37 41 43 42 38 35 31 27 25 23 21 21 19 18 17 16 16 16 16 17 17 19 20 22 23 24 26 28 30 32 34 37 38 40 41 42 43 45 46 46
3 8 5 1 1 7 6 2 5 6 2 2 3 5 3 4 5 2 3 4 2 5 4 3 4 6 3 4 6 4 7 11 11 15 19 18 16 13 15 19 21 23 25 27 30 33 37 40 42 41 38 34 31 28 25 23 22 21 19 18 17 16 16 15 16 16 17 19 20 21 22 24 26 28 31 33 35 36 38 39 41 42 43 44 45 45
2 6 3 2 2 2 2 1 2 2 3 2 3 4 4 4 5 2 3 1 4 3 6 2 6 8 3 5 5 3 6 9 7 11 14 13 12 12 18 22 22 24 26 27 30 33 36 40 41 40 37 34 32 28 26 24 23 21 18 17 16 15 15 14 15 16 17 19 19 20 21 23 26 29 31 34 35 36 38 39 41 42 43 44 44 45
4 4 3 2 1 1 1 1 2 2 4 5 3 5 3 2 4 3 1 3 3 3 6 4 9 13 9 6 2 3 6 9 9 10 9 8 9 14 23 26 24 25 25 26 29 32 36 39 41 40 37 34 32 29 27 25 23 20 17 16 15 14 13 14 15 16 17 18 19 20 22 24 26 29 31 33 35 37 38 40 41 42 44 44 44 44
3 3 4 2 2 1 2 1 1 2 3 5 3 2 3 3 2 2 2 2 2 3 6 9 12 13 9 6 4 5 9 9 10 10 7 7 10 18 26 27 25 25 26 27 30 33 36 40 41 41 38 35 32 29 27 25 22 19 16 15 14 13 13 14 15 16 17 18 18 20 22 25 27 29 31 34 36 37 39 41 42 43 44 44 44 44
3 3 4 1 1 1 2 2 5 2 2 3 0 1 1 2 4 3 3 3 3 3 6 10 13 12 6 7 7 10 10 10 9 9 8 9 15 23 27 26 26 27 28 29 31 33 37 40 42 40 37 34 32 29 27 24 20 17 15 14 13 12 13 14 15 16 16 17 19 21 23 25 27 30 32 34 36 39 41 42 43 44 45 45 45 44
3 3 5 1 2 1 4 6 9 10 7 4 3 3 2 1 2 1 2 3 4 4 4 4 11 15 6 7 8 10 9 10 10 9 8 10 19 26 26 25 26 27 28 29 31 33 37 40 41 39 36 34 32 29 26 22 19 16 14 13 12 12 13 14 16 16 16 17 19 22 23 25 28 30 33 35 37 40 42 43 45 45 46 46 45 45
3 3 5 3 2 5 6 3 3 7 8 7 8 8 8 6 4 1 5 3 3 4 5 4 8 18 6 7 7 8 8 9 10 10 8 11 21 26 24 25 26 27 29 29 31 33 36 40 41 39 37 35 33 29 24 21 18 16 14 13 12 13 14 15 15 15 16 18 20 22 24 27 29 32 34 36 38 41 43 44 46 46 46 47 46 45
4 3 4 6 6 6 4 1 1 3 2 2 5 5 7 7 7 7 8 5 3 3 2 4 4 16 7 7 6 7 7 8 9 10 9 13 21 23 21 24 25 27 29 29 31 33 36 40 41 39 38 36 32 27 23 20 18 15 14 13 12 13 14 14 14 15 17 19 20 23 25 28 31 34 36 38 40 42 44 45 46 46 46 46 46 45
3 2 4 6 5 3 4 3 2 2 3 2 6 5 7 8 10 9 6 3 3 4 3 4 5 17 9 4 4 4 3 5 6 10 11 13 19 21 22 24 25 26 28 29 32 34 36 39 40 39 39 36 31 26 22 19 17 14 13 13 13 13 13 13 14 16 17 19 21 23 27 30 33 36 38 40 43 45 46 47 46 46 45 46 45 45
6 2 3 3 5 5 4 3 2 1 2 4 5 5 8 11 9 3 1 2 4 7 9 5 11 20 10 3 5 1 4 5 7 12 15 15 18 21 23 23 24 26 28 30 32 34 36 39 41 42 41 36 30 24 21 18 16 14 13 13 13 13 13 13 14 16 18 20 23 25 28 32 35 38 40 42 45 46 47 46 45 45 45 45 45 44
9 3 5 7 9 10 10 7 4 3 3 3 3 5 10 14 13 6 3 5 9 9 10 9 18 20 14 8 4 2 5 7 8 12 16 19 22 23 22 23 25 27 29 31 33 35 38 41 43 43 40 34 28 23 20 17 15 14 14 14 14 13 13 14 14 17 19 21 24 27 30 33 36 40 42 45 46 47 46 45 44 45 44 44 45 44
5 3 10 14 15 15 16 13 5 7 5 6 9 12 14 15 16 12 8 9 11 8 9 18 23 18 23 27 17 9 10 11 12 13 13 18 23 25 25 26 27 28 29 30 32 35 38 42 44 43 38 31 26 22 19 17 16 16 15 14 14 13 13 14 15 17 20 22 26 29 32 35 38 42 44 46 46 45 45 44 44 44 43 43 43 44
2 5 15 20 21 19 19 17 7 9 8 12 13 16 17 16 16 15 15 18 15 9 13 23 21 16 27 33 23 16 17 15 15 16 14 17 23 25 26 27 26 28 28 30 33 36 39 43 44 42 36 30 25 22 20 19 18 17 15 15 14 14 14 15 16 19 21 24 27 30 34 37 40 43 45 45 45 44 43 43 42 42 42 42 43 44
3 9 16 17 19 19 20 18 9 8 8 9 12 17 19 18 19 19 22 27 23 15 17 23 21 21 29 28 20 18 17 13 18 22 19 18 22 22 23 24 26 27 29 31 34 36 40 43 44 41 35 29 26 23 22 20 19 17 16 15 15 14 15 16 17 19 22 25 29 32 35 38 41 44 44 43 43 42 42 42 41 41 41 42 43 44
4 9 14 14 15 17 19 18 10 8 9 9 12 18 19 17 20 23 27 31 27 21 23 27 27 29 30 23 17 21 21 17 23 29 23 20 21 21 23 25 26 28 30 32 35 36 39 43 43 40 35 30 28 25 23 21 19 17 17 16 15 14 15 16 18 20 23 27 30 33 37 40 42 43 42 42 41 41 40 40 40 41 41 42 43 43
5 7 9 8 9 15 19 15 9 10 11 12 16 24 21 15 16 23 27 25 21 20 25 28 27 28 27 20 15 21 25 22 23 26 26 28 27 24 24 26 27 29 32 33 35 36 39 42 42 40 36 32 29 25 23 21 19 19 17 16 15 14 15 17 19 21 24 28 31 35 38 40 41 41 40 40 39 39 39 39 39 40 41 42 43 43
5 4 2 2 6 15 14 8 7 7 5 9 21 31 27 18 18 23 21 17 17 20 23 22 19 22 23 18 14 17 19 19 19 21 25 30 30 26 26 29 30 32 34 34 35 36 39 42 44 42 38 33 28 25 23 22 20 19 17 16 14 14 15 17 19 22 25 29 32 35 38 39 39 39 39 38 38 37 38 38 39 40 41 42 42 43
6 4 3 4 9 13 7 3 6 5 1 10 21 26 25 21 22 22 18 18 23 22 17 16 19 22 20 14 15 19 18 17 19 21 24 27 27 26 29 33 33 34 35 34 35 36 39 42 45 43 38 32 28 26 24 23 21 19 17 15 14 14 15 17 19 23 26 30 33 35 37 37 38 38 37 36 36 36 37 38 38 39 40 41 42 42
5 7 7 6 8 9 3 5 6 4 11 14 8 7 13 19 22 21 21 27 30 22 16 19 23 23 19 15 18 21 21 24 27 25 24 25 25 27 31 33 34 35 35 34 34 36 38 41 43 41 36 31 29 27 25 23 21 18 16 14 14 14 15 17 20 24 27 30 33 34 35 36 37 36 35 34 34 35 36 37 37 38 39 41 41 42
7 8 6 4 5 3 2 4 2 11 17 11 6 1 9 11 14 17 22 30 33 25 21 24 25 24 22 21 22 24 28 35 37 31 26 27 28 29 31 33 33 33 33 33 34 35 37 40 42 41 37 32 30 27 25 22 20 17 16 14 13 13 14 17 20 24 28 30 32 33 35 36 35 34 33 33 33 34 34 35 36 37 39 40 41 42
8 7 4 4 3 1 2 6 10 13 11 12 16 11 6 4 3 8 16 25 28 25 21 21 22 25 24 23 27 31 33 32 32 32 33 35 34 33 34 35 34 33 33 33 33 33 35 39 42 42 38 33 29 26 24 22 19 17 15 13 12 12 14 17 21 25 27 30 31 33 34 34 33 32 31 32 32 32 33 34 35 36 38 40 40 40
9 8 5 6 6 5 8 10 11 12 12 17 24 16 5 5 5 7 11 21 27 25 17 15 20 25 23 22 27 29 22 15 17 27 37 40 38 37 36 36 34 32 31 30 30 31 33 36 40 39 35 30 27 26 24 21 18 16 14 12 11 12 14 17 21 25 27 29 31 32 31 31 31 30 30 30 31 31 32 33 34 35 38 40 40 40
13 11 9 9 9 8 10 10 10 12 12 19 25 15 5 10 12 9 7 18 29 21 11 15 22 25 22 21 19 12 5 4 8 18 31 35 32 30 31 32 31 30 28 28 29 31 32 34 38 36 32 29 27 25 23 20 18 15 13 11 10 11 14 18 22 24 27 29 30 29 29 29 28 28 29 29 29 30 31 32 33 35 37 39 40 39
13 9 9 11 9 9 11 11 11 12 13 17 17 7 4 10 10 8 4 18 21 8 14 18 22 21 18 16 10 7 5 4 8 15 25 26 20 19 23 26 29 28 27 27 28 29 31 35 38 35 31 29 27 24 22 19 17 14 11 10 10 12 15 19 22 24 27 28 27 27 27 27 26 26 27 28 28 29 30 31 33 35 36 37 38 38
8 7 8 11 12 13 13 12 10 8 9 13 10 2 8 14 16 10 8 17 9 8 17 19 17 17 16 11 9 8 6 9 11 15 19 17 12 14 17 20 25 26 26 27 27 27 31 37 38 34 31 29 27 24 22 19 15 13 11 9 10 12 16 19 22 24 26 26 25 25 25 24 24 25 26 27 27 27 28 30 32 34 36 37 37 38
5 7 9 11 14 15 14 14 12 6 8 13 7 9 15 17 12 7 15 10 1 6 16 19 17 20 19 13 12 10 15 23 24 18 14 10 9 12 14 17 22 23 24 27 28 29 34 37 36 33 31 29 27 24 21 18 14 12 10 8 10 14 17 19 22 23 24 23 23 23 22 22 23 23 24 25 26 26 27 28 31 33 35 36 37 38
5 4 6 10 12 12 13 14 10 7 13 14 9 17 19 12 6 15 14 7 7 7 13 19 21 23 23 21 22 22 24 30 31 23 17 14 13 14 16 19 22 24 25 28 30 33 37 38 36 33 31 29 27 24 20 17 14 11 9 8 11 15 17 19 21 22 21 21 21 21 20 20 21 22 22 24 25 26 26 27 29 32 34 35 37 38
9 6 5 8 9 8 9 9 8 9 14 15 14 11 11 10 16 23 17 15 20 19 16 20 24 24 25 26 30 31 27 24 25 25 22 18 16 17 18 20 24 27 30 32 34 37 39 38 36 34 31 29 26 23 19 16 14 10 7 8 12 15 17 19 20 20 19 19 20 19 18 18 19 20 21 23 24 26 26 27 29 31 33 35 37 38
8 7 6 7 8 8 7 10 12 11 10 24 23 10 15 29 40 40 23 16 25 28 23 23 26 27 28 28 29 31 27 23 24 26 24 22 21 20 20 22 25 29 32 35 38 39 39 37 36 34 31 28 25 22 19 16 13 9 7 10 13 15 17 18 18 18 18 18 18 17 16 16 18 19 20 22 23 25 26 27 28 30 32 34 36 38
13 16 15 11 10 11 11 12 13 10 11 29 32 25 30 47 58 54 33 19 25 31 26 25 28 29 29 29 29 28 25 24 27 28 27 27 26 25 25 27 29 32 35 38 39 39 38 37 34 32 31 28 24 21 19 15 11 7 8 11 13 14 15 16 16 16 16 17 17 15 14 14 16 18 19 21 22 24 26 27 28 30 31 33 35 36
17 20 17 11 9 12 13 11 11 8 10 25 38 42 44 46 49 49 41 33 34 35 29 28 33 32 30 30 29 26 25 27 30 31 30 29 28 28 28 30 32 35 38 40 40 39 38 36 33 31 30 27 24 22 18 14 9 7 9 11 12 13 15 15 15 14 15 16 15 14 14 14 14 16 18 19 21 23 25 26 27 28 30 32 33 34
12 15 13 10 10 11 11 13 18 20 17 23 35 43 46 47 45 43 42 42 43 41 35 35 37 36 33 34 33 31 30 30 32 33 32 32 32 32 32 34 37 39 41 40 40 39 38 36 34 32 29 27 24 21 17 12 9 8 9 11 12 13 14 14 13 13 14 14 13 13 13 14 14 15 16 18 20 22 23 24 25 27 29 31 32 34
12 15 13 12 13 15 15 17 21 24 25 29 35 37 38 44 47 45 44 44 42 39 39 40 39 35 35 37 37 35 33 33 35 36 35 36 36 36 37 38 40 42 42 41 40 39 38 36 34 32 30 27 24 20 16 12 9 9 9 11 12 12 13 13 12 13 13 13 12 12 13 14 15 15 16 16 18 21 24 25 26 26 27 28 30 32
10 13 11 10 13 16 17 17 17 17 17 23 35 43 46 49 49 45 43 41 37 35 38 40 39 39 41 43 42 39 35 36 38 38 39 40 40 40 40 41 42 43 43 42 41 39 37 35 33 31 29 26 23 19 15 11 10 9 10 10 11 11 12 12 12 12 12 11 10 10 12 13 15 16 17 16 16 17 20 24 26 26 25 25 26 26
7 10 9 8 12 15 14 17 20 17 13 16 31 46 54 54 49 40 35 37 40 41 42 41 42 44 45 45 43 40 38 38 39 40 41 43 43 42 42 43 44 44 44 43 41 38 35 33 31 30 28 25 22 18 14 12 10 9 9 10 10 10 10 10 11 11 11 10 9 9 10 12 14 16 17 18 17 17 16 17 20 23 24 24 23 22
12 15 12 12 15 17 19 24 26 20 14 20 37 49 49 47 45 40 38 43 48 49 47 46 45 45 45 45 44 42 41 41 41 41 42 44 43 43 43 45 46 46 45 44 42 39 36 33 31 29 27 24 21 17 14 12 11 10 9 10 10 9 9 9 10 10 10 8 8 9 10 12 14 15 16 18 19 19 19 17 17 18 21 22 22 22
Wind_Direction
78 282 231 222 229 231 224 193 180 173 147 146 150 181 227 239 267 262 240 285 18 247 269 254 242 256 265 270 272 257 229 226 232 233 235 233 230 229 228 229 228 227 229 225 221 220 221 221 222 223 224 225 227 231 236 237 238 243 255 276 296 308 318 321 320 322 322 324 325 325 324 324 325 324 323 321 320 321 322 321 321 320 319 319 320 320
68 233 237 225 221 214 201 166 132 124 118 116 166 215 261 237 258 272 267 317 359 171 269 282 269 262 260 266 273 261 223 227 229 226 237 235 231 233 232 232 232 229 229 224 220 220 220 220 221 222 223 223 228 232 236 238 239 244 256 274 292 305 312 316 317 319 321 322 323 323 323 323 323 322 320 318 317 318 318 317 316 316 316 316 317 318
9 250 246 220 177 110 93 120 116 118 123 115 149 187 271 251 272 292 320 353 355 178 271 299 289 270 264 262 266 259 238 246 244 237 246 243 235 237 236 235 233 229 228 223 220 219 218 220 220 221 222 223 228 231 235 239 240 245 255 270 286 300 306 311 314 316 319 320 320 320 320 321 321 320 319 318 318 317 316 316 315 315 315 315 317 319
246 257 253 178 139 109 80 93 102 95 122 155 157 186 257 267 297 284 311 341 307 228 271 289 281 268 263 256 261 266 255 253 255 252 254 250 243 245 244 242 237 231 229 224 220 218 218 219 219 221 221 223 227 229 235 240 242 248 255 269 283 294 300 305 308 312 315 316 316 317 317 317 317 318 318 317 318 317 317 317 317 317 317 318 319 321
239 245 160 115 122 127 120 124 129 142 247 251 206 207 242 255 238 239 294 329 315 319 322 309 294 274 253 242 254 288 295 257 256 256 257 251 248 250 249 246 242 237 233 228 221 218 218 219 220 221 221 224 227 230 235 241 243 248 255 268 280 288 294 299 304 307 310 312 313 314 314 314 314 315 317 317 318 317 317 317 317 318 318 319 320 322
259 230 141 125 89 123 147 192 191 174 209 298 236 214 229 240 250 274 336 346 349 331 329 10 324 287 258 222 254 287 349 276 255 250 258 257 250 247 246 245 242 240 237 232 226 221 220 221 220 220 221 224 227 230 236 240 242 247 254 264 275 283 288 294 299 303 307 310 312 313 314 315 315 317 318 317 317 317 316 316 316 316 317 318 319 320
263 92 115 139 138 138 170 238 231 169 141 301 256 206 208 201 234 316 4 356 304 262 302 49 336 275 272 198 247 260 276 278 264 246 258 261 254 247 248 247 242 239 236 231 227 224 222 221 220 220 221 224 227 230 235 239 241 243 250 260 269 277 282 288 294 300 305 309 311 313 315 317 318 318 319 318 317 318 317 316 316 315 316 317 317 318
149 85 61 99 114 137 188 247 225 154 130 242 239 128 121 119 149 181 92 351 247 268 303 202 172 274 277 240 252 252 246 274 274 265 264 259 254 251 251 251 245 242 238 231 227 224 222 222 222 222 222 225 228 230 233 236 238 241 247 257 265 271 277 284 292 299 304 308 310 312 313 315 317 317 318 319 318 319 318 317 317 317 317 318 318 318
125 154 180 137 114 178 204 231 197 158 147 238 203 123 109 116 146 147 119 218 274 2 295 223 153 277 273 251 327 27 211 255 265 262 264 258 255 254 254 255 250 246 241 235 231 228 225 223 222 223 224 226 227 228 232 234 235 239 245 254 262 266 273 283 292 299 303 305 308 310 311 313 315 315 316 317 318 319 319 318 318 318 318 318 318 318
95 169 192 150 151 217 209 233 188 166 183 195 146 106 75 74 85 91 110 173 28 326 266 222 167 234 275 228 121 75 207 237 251 256 261 264 262 261 261 261 255 247 241 238 235 232 229 225 223 223 224 225 225 226 230 233 234 237 243 251 260 265 272 283 291 296 299 302 305 307 310 312 315 315 316 317 319 319 319 318 318 318 318 318 318 317
29 107 183 169 183 186 139 87 72 116 137 136 110 64 33 36 50 52 53 74 38 277 268 227 181 192 284 252 162 172 210 206 215 246 265 269 270 270 271 268 258 248 243 238 234 230 228 225 222 221 222 223 223 225 229 232 234 237 243 250 259 266 272 282 289 293 297 300 303 306 309 312 314 315 317 319 320 319 319 318 318 318 317 317 317 316
350 131 224 223 177 136 102 74 42 64 107 112 86 54 12 335 11 20 354 43 62 255 273 243 184 185 246 248 194 231 254 213 196 227 248 259 271 278 282 274 261 251 245 238 232 226 222 220 217 218 220 221 222 225 228 231 234 239 245 251 260 268 273 280 286 290 296 299 303 306 309 311 313 316 319 320 320 320 319 318 318 318 317 316 316 316
301 228 228 182 180 161 118 76 18 3 55 98 93 78 41 325 352 347 309 49 225 250 265 174 168 216 247 246 230 241 255 240 217 223 239 254 271 281 284 277 265 254 245 237 230 225 220 217 216 218 219 219 222 225 228 231 235 241 248 254 262 269 273 279 284 289 295 300 303 306 308 311 314 317 320 320 320 320 319 319 318 318 317 317 316 315
290 293 145 151 233 189 164 154 216 264 130 147 145 131 146 139 22 277 274 278 268 271 251 164 154 260 269 261 230 227 234 237 237 240 248 258 268 276 279 274 267 256 246 238 231 226 221 218 218 219 219 219 221 224 227 231 236 243 249 256 264 269 272 278 284 290 296 300 304 306 309 312 316 319 321 320 319 319 318 318 318 318 317 316 316 316
246 291 214 180 217 178 181 193 166 142 141 175 155 137 158 153 172 228 234 246 276 294 251 186 183 235 260 282 220 213 232 242 245 248 252 260 267 273 275 267 259 252 243 237 231 227 224 221 220 219 219 219 220 223 227 231 237 243 250 257 264 269 273 278 284 290 296 300 303 306 310 314 318 320 320 319 318 318 318 318 317 318 317 316 316 316
215 267 247 200 70 156 179 206 116 112 133 207 125 119 181 183 170 213 218 201 271 316 275 198 221 231 218 266 244 210 253 254 251 254 253 259 265 268 267 258 250 246 240 234 230 227 225 222 220 219 218 218 219 222 227 232 238 245 250 258 264 269 273 278 285 292 297 301 304 307 312 317 319 319 318 317 317 317 318 318 318 318 317 317 316 316
192 273 286 36 7 142 157 187 119 129 183 168 136 175 216 183 133 135 267 8 61 299 274 227 252 273 302 275 250 188 254 258 252 254 252 254 257 254 256 253 246 243 240 235 232 229 225 222 219 219 218 218 219 223 228 233 240 246 251 257 263 269 274 280 287 293 297 300 304 309 314 318 318 318 317 317 318 319 319 320 320 319 317 317 316 315
188 260 256 130 204 258 78 101 59 57 131 131 183 212 199 125 94 104 246 342 31 258 274 269 262 278 286 282 292 136 233 254 251 248 245 245 243 242 249 250 245 244 241 237 234 230 226 222 220 219 217 218 220 223 229 235 240 246 250 255 261 266 274 283 289 294 297 300 306 312 316 318 318 318 319 319 320 321 321 321 320 318 317 316 315 313
166 238 268 127 179 254 42 107 110 18 99 136 199 219 120 142 167 111 151 244 256 240 274 280 279 277 255 240 254 221 217 232 245 242 230 228 228 234 245 247 242 241 237 234 232 228 225 222 219 218 217 217 219 223 229 235 240 245 249 254 260 266 275 283 289 292 297 303 310 316 317 318 319 320 321 321 321 322 321 320 319 317 316 315 314 313
140 201 260 273 241 257 60 178 190 196 64 79 199 325 37 160 176 167 154 179 197 214 269 288 293 281 229 184 230 236 209 203 226 235 223 222 226 231 239 243 239 236 235 234 232 228 225 221 219 218 216 217 221 225 230 234 239 243 247 254 260 267 275 282 287 290 297 306 313 317 318 320 321 322 322 322 322 322 321 319 318 317 316 315 314 313
115 196 231 272 334 210 189 208 196 183 165 149 182 204 228 171 116 209 223 139 148 197 241 276 284 275 238 155 209 226 202 197 208 219 218 219 230 234 238 241 240 238 238 237 235 231 226 221 218 216 215 218 222 225 229 233 237 241 246 252 258 266 273 279 285 292 302 311 315 318 321 322 323 324 323 323 323 321 320 319 317 317 315 314 314 313
156 195 208 193 229 218 215 231 193 182 172 175 193 194 193 175 122 211 248 212 162 201 207 178 265 275 260 142 195 208 190 200 205 212 219 218 228 235 238 240 240 241 242 240 236 233 227 221 216 214 215 218 222 225 228 231 235 238 242 249 255 263 271 279 287 298 307 313 317 320 323 324 324 324 324 324 323 321 320 319 317 316 315 314 314 313
124 117 205 226 232 228 247 353 138 194 150 179 217 196 181 171 156 195 230 224 173 208 207 112 262 271 256 138 176 192 185 210 209 203 211 221 228 234 238 240 241 242 243 241 237 234 228 220 214 213 216 219 222 223 226 229 232 235 240 246 253 262 272 280 291 302 308 313 318 322 324 325 325 325 325 324 323 322 321 320 318 317 316 315 315 315
102 113 214 253 284 320 345 15 57 50 69 229 242 192 175 197 197 207 220 187 167 207 180 98 254 260 257 129 165 207 213 239 219 203 211 224 231 237 241 243 243 243 241 239 236 233 226 217 212 214 218 220 221 221 223 227 230 233 238 244 253 262 271 282 294 303 308 313 319 322 323 325 326 326 325 324 324 324 322 321 319 319 318 318 318 318
169 170 173 240 293 305 311 332 344 325 181 220 241 188 194 216 209 214 345 149 218 210 165 146 246 253 259 104 120 200 276 268 238 220 225 234 239 243 246 246 245 242 239 237 234 229 222 214 212 216 218 219 219 219 222 225 228 232 237 245 252 259 271 284 294 303 309 313 317 321 324 326 326 325 325 325 325 324 323 322 322 322 322 322 321 320
172 190 170 203 238 241 247 250 231 211 188 215 249 200 206 213 201 205 235 215 229 210 164 196 241 255 274 264 208 211 261 258 248 232 230 239 246 249 249 247 246 242 238 237 233 227 220 214 213 216 218 217 217 217 221 224 226 232 238 243 250 258 272 284 295 302 309 313 317 322 325 326 326 326 326 326 326 325 324 324 324 325 325 324 322 321
156 209 194 213 227 227 240 246 194 123 148 203 219 212 212 212 204 210 233 232 232 224 210 230 240 260 276 267 258 254 255 260 265 259 245 242 247 250 250 250 248 243 240 238 233 227 220 215 215 217 216 215 215 215 220 223 226 231 234 241 251 262 274 284 295 302 308 314 319 324 325 326 327 327 327 327 327 326 325 326 326 326 325 324 322 320
126 226 217 226 231 232 246 250 197 141 185 208 210 216 219 212 203 207 227 235 233 230 240 244 242 251 260 261 264 266 263 266 270 270 266 257 254 252 251 249 244 239 238 235 232 227 222 217 215 216 214 212 213 215 219 222 224 228 231 239 252 264 275 286 296 303 310 317 322 325 326 327 328 328 328 328 327 327 326 326 326 326 325 324 321 319
157 231 231 232 238 242 250 251 214 170 212 217 207 220 221 211 204 207 224 234 231 228 246 252 249 247 251 257 263 264 262 264 270 277 281 272 262 252 246 242 238 236 236 234 233 230 224 219 216 214 212 210 212 215 218 220 222 225 231 240 252 264 277 289 297 305 313 320 324 326 326 328 328 329 329 329 328 327 326 326 327 327 326 324 321 320
171 236 240 239 249 250 249 249 225 194 234 245 233 235 228 212 208 213 224 233 233 233 246 254 256 255 256 258 261 265 269 270 275 282 282 270 260 251 243 239 237 238 239 238 238 233 226 220 216 213 211 210 213 215 217 219 221 224 231 242 254 266 279 291 299 309 317 322 325 326 327 328 330 330 330 328 327 327 327 328 329 328 326 324 322 321
203 233 242 239 253 253 250 249 227 211 233 247 252 252 240 215 215 225 230 236 240 241 246 252 259 262 262 262 262 269 276 278 276 276 272 267 262 252 244 242 240 242 243 242 240 234 226 220 215 212 211 211 212 213 215 217 219 224 233 243 256 269 282 293 303 313 321 324 326 326 328 330 330 330 329 328 327 327 329 330 330 329 327 325 324 324
201 227 258 191 242 253 253 239 206 201 222 246 253 253 243 223 223 233 235 234 235 239 245 251 257 258 262 269 271 269 271 269 267 266 266 267 264 251 243 244 244 244 245 244 238 231 224 220 216 212 210 209 209 210 214 216 218 224 234 245 257 271 284 297 308 317 323 325 326 327 330 331 330 329 328 328 329 330 331 332 331 330 328 327 328 328
177 193 214 200 235 255 254 156 145 130 161 251 250 248 241 233 232 238 245 243 234 231 236 244 246 250 260 274 274 270 267 259 258 260 262 265 262 251 245 244 245 247 248 245 238 231 227 224 217 211 208 207 207 210 213 214 218 226 235 246 259 273 288 301 313 321 324 325 326 328 331 330 328 328 328 329 331 332 334 334 332 331 330 329 331 332
182 205 214 204 233 251 226 116 108 166 232 246 250 225 226 231 232 233 241 246 242 232 226 238 249 257 264 264 261 264 266 263 264 265 265 264 258 248 245 244 245 248 247 243 238 233 229 223 215 208 206 206 207 209 211 212 219 228 235 246 260 275 292 306 317 323 324 325 327 330 330 328 326 328 329 331 334 335 335 335 334 334 333 332 334 336
187 207 212 206 231 246 130 110 169 226 232 254 317 239 199 213 220 221 234 245 248 242 233 239 249 256 258 256 255 257 262 267 273 276 273 268 260 251 247 246 246 246 244 239 235 231 227 220 211 204 203 204 206 207 209 212 218 227 235 246 262 279 297 312 320 323 323 325 329 330 327 326 326 328 331 333 335 337 337 337 337 336 335 336 338 340
194 198 201 210 209 175 167 194 226 249 268 296 291 265 197 156 182 213 241 253 252 246 236 237 247 251 252 254 255 256 261 271 280 281 275 270 264 255 249 249 250 249 245 243 239 234 229 220 209 203 201 203 204 205 208 213 218 226 235 247 265 285 303 317 321 322 324 327 329 328 326 326 327 329 333 335 337 338 340 339 339 339 338 339 341 342
203 202 209 223 210 214 236 228 240 276 294 280 268 257 180 144 174 197 247 264 262 252 232 223 242 248 246 249 253 256 264 284 291 279 272 270 266 260 255 254 256 254 249 246 240 233 227 216 204 200 201 201 202 204 207 212 218 225 236 250 269 292 310 319 320 321 325 328 327 326 326 326 328 331 334 337 338 341 343 342 341 341 341 341 343 344
213 211 211 228 222 220 241 246 249 258 255 253 259 261 174 174 190 182 217 263 268 259 201 196 231 241 242 248 248 243 253 291 282 271 270 270 267 261 255 251 249 248 243 236 228 221 215 205 198 197 199 200 201 203 206 211 218 225 237 253 276 301 314 319 319 321 326 328 326 326 326 326 329 333 336 339 341 343 345 344 343 344 344 344 345 346
217 221 220 232 236 228 235 243 241 240 245 253 262 269 162 172 163 129 193 259 267 240 163 194 224 231 238 243 222 155 139 236 256 263 267 272 270 258 248 241 238 237 233 228 225 219 207 197 194 195 197 199 201 202 205 210 216 225 239 259 284 308 315 316 319 324 326 326 325 325 325 327 331 335 337 340 344 346 347 346 345 345 346 347 347 348
202 217 223 227 233 233 234 241 243 242 254 261 261 210 151 146 125 116 240 256 256 148 168 195 213 220 227 219 177 154 174 217 242 261 265 266 261 242 236 234 232 230 224 216 214 210 200 193 192 195 196 198 200 201 205 209 214 225 244 267 293 310 313 315 321 326 326 325 324 324 326 329 333 338 340 342 344 348 349 348 346 347 348 350 350 350
186 209 213 217 228 230 230 241 248 245 251 255 235 154 145 132 126 203 242 255 348 148 186 193 200 215 215 185 163 186 215 223 233 252 262 252 235 222 220 225 227 225 221 213 203 197 194 191 192 195 196 197 199 201 204 208 213 228 249 276 299 307 311 317 324 326 324 323 323 323 327 331 335 340 343 343 344 348 351 351 349 348 350 353 353 352
182 194 201 212 227 227 227 240 251 251 245 236 175 148 154 148 203 236 241 276 300 248 206 199 205 211 204 189 192 209 224 228 232 241 249 242 228 218 214 214 212 208 206 204 196 191 190 190 191 194 195 195 197 199 202 206 214 230 252 282 299 305 312 321 325 324 323 322 321 323 329 335 338 342 346 346 346 348 351 353 352 350 353 356 356 355
181 182 197 202 209 217 230 234 237 252 235 190 147 145 172 195 237 242 243 261 261 248 224 213 213 209 202 200 208 217 225 229 228 232 236 233 227 222 218 215 211 205 199 195 191 189 190 191 191 193 194 194 196 198 200 206 216 231 256 284 297 306 315 322 324 323 321 319 319 324 332 339 342 346 348 348 347 348 351 354 355 354 356 359 0 358
171 183 210 205 192 199 219 212 217 246 207 163 159 187 205 210 231 241 239 241 249 245 231 218 219 218 213 213 219 224 224 226 227 227 225 222 220 218 214 211 209 204 197 192 189 188 190 193 193 192 192 194 195 196 200 208 218 231 261 284 297 309 318 322 323 321 318 316 317 325 337 344 346 349 351 351 348 348 352 356 358 357 358 2 5 2
191 200 215 217 198 198 215 218 218 234 192 176 190 217 217 215 228 238 237 235 244 243 232 222 226 227 222 222 225 226 227 232 232 226 220 219 218 214 211 209 205 200 195 190 188 189 191 194 194 192 192 192 192 195 201 208 217 236 266 286 300 311 318 321 320 317 314 313 316 326 342 350 351 353 354 354 350 349 353 358 0 360 0 5 9 6
209 212 220 225 214 216 234 248 241 232 192 190 208 225 230 228 231 235 235 237 241 242 236 231 233 233 229 227 225 226 235 239 231 223 220 218 215 211 209 204 198 195 193 189 188 190 191 192 193 192 192 191 191 196 203 208 216 239 269 288 302 312 317 318 316 312 310 311 317 330 344 352 358 0 359 356 353 352 356 1 3 3 4 6 9 10
221 221 225 223 215 221 233 236 234 231 215 203 214 227 234 238 237 233 232 235 239 241 240 238 239 238 235 232 229 231 240 238 226 218 216 213 210 207 204 199 195 194 193 192 192 192 192 192 192 191 191 191 192 196 201 206 218 244 271 289 302 312 315 314 311 307 307 311 320 335 346 353 1 7 8 3 356 354 359 5 7 8 8 7 8 9
208 209 218 220 217 225 232 229 233 238 230 222 227 234 237 240 240 237 236 238 240 241 240 240 239 236 233 233 232 233 235 231 223 218 214 211 208 205 202 199 196 193 192 193 194 194 194 195 194 192 192 192 194 196 200 206 222 247 272 289 301 309 312 310 306 304 305 311 324 340 350 355 1 8 13 13 6 359 358 3 9 14 14 10 10 9
178 190 195 202 216 230 240 241 245 255 246 233 236 239 240 242 242 239 238 240 241 240 238 238 238 236 235 236 235 230 227 226 224 221 216 210 206 204 202 200 197 194 193 194 195 196 197 197 196 194 193 193 194 197 200 209 228 250 272 290 300 306 307 303 300 301 304 311 329 346 353 359 3 6 9 14 18 15 7 3 6 12 15 15 16 14
169 200 190 192 221 230 231 231 233 240 241 235 237 239 240 242 243 241 237 237 238 238 236 235 236 236 236 237 234 228 225 226 225 221 215 211 208 205 202 198 196 195 194 194 194 195 196 196 195 193 192 193 194 197 202 213 232 252 272 287 296 300 299 294 293 297 301 311 333 351 357 3 7 7 6 7 13 22 25 20 12 10 12 14 15 16
203 212 200 206 227 229 226 226 228 230 236 239 243 246 245 242 240 238 236 236 237 237 235 233 233 233 231 230 229 228 228 229 225 218 213 211 210 208 203 198 195 195 194 194 194 193 191 192 192 192 193 193 194 198 206 217 234 255 271 283 291 292 287 283 286 291 297 311 338 354 1 6 10 10 8 6 6 10 18 26 25 19 15 14 13 14